CZ-6A DEB, 64633

Orbit data source: Space-Track

CZ-6A DEB, 64633 is space debris in LEO originally from a launch on Tue, 06 Aug 2024 UTC launched from the Taiyaun Space Center, China (TSC). Debris objects in space refer to the collection of defunct objects orbiting the Earth. Examples of debris include non-operational satellites, rocket bodies, and fragments generated from explosions, collisions, or faulty payload assembly.

Loading next visibility...
Identifier
64633, 2024-140ADX
Orbit
LEO
Country
Flag of CNCN / PRC
Related business
Manufacturer
SAST
Mission
Spacecraft
Bus & Motor
Unknown
Mass
Unknown
Launch date (UTC)
2024-08-06 (1 year ago)
Launch vehicle
Unknown
Launch site
Taiyaun Space Center, China (TSC)
Object type
Payload
Rocket body
Debris
Shape & HBR
Unknown shape, 0.1 m
Radar Cross Section
Small (<0.1 m²)

Expand to show TLE details & history
Last TLE update: 2 days ago

TLE from 2 days ago
0 CZ-6A DEB
1 64633U 24140ADX 25352.80388377  .00003717  00000-0  19555-2 0  9999
2 64633  88.9943 295.9540 0109016  85.5780 275.7851 14.10847539 64286
Epoch: 2025-12-18T19:17Z
TLE epoch observation values (Epoch: 2025-12-18T19:17:35.557Z)
Latitude
0.00001°
Longitude
-81.0983°
Altitude
852.415 km
Speed
7.43 km/s
True Right ascension
19h 43m 48s
True Declination
0° 00' 00"
Sunlit
Object was in daylight at epoch
Visualization orbit readout
Latitude
Unknown
Longitude
Unknown
Altitude
Unknown
Speed
Unknown
Apparent Right ascension
Unknown
Apparent Declination
Unknown
Sunlit
N/A
Visualization observer readout
Local Sidereal Time
10:34:34
Azimuth
Unknown
Elevation
Unknown
Doppler factor
Unknown
Orbital elements
Apogee altitude
932.272 km
Perigee altitude
774.601 km
Semi-major axis
7,231.574 km
Eccentricity
0.0109
Inclination
88.9943°
RAAN
295.954°
Arg. of periapsis
85.578°
True anomaly
274.54062°
Mean anomaly
275.7851°
Eccentric anomaly
275.16302°
Mean motion
3.52934 °/min
Orbital period
102 mins
BSTAR
0.0019555
Loading maneuver chart data...
Computing Atmospheric mass density...

Documentation

Showing up to 5 results
|